Flag for United Kingdom Weather past 2 weeks in Caversham, England, United Kingdom

Now
64 °F

Scattered clouds.


Feels Like: 64 °F
Forecast: 48 / 62 °F
Wind: 8 mph from West

Location: Benson

Current Time: Sep 1, 2015 at 6:13:56 PM

Latest Report: Sep 1, 2015 at 5:00 PM


Visibility: 22 mi

Pressure: 30.08 "Hg

Humidity: 62%

Dew point: 50 °F

Location of CavershamLocation

Historic Weather in Caversham — Graph

°F

Caversham temperature yesterday

Maximum temperature yesterday: 59 °F (at 12:00 AM)
Minimum temperature yesterday: 56 °F (at 11:00 PM)
Average temperature yesterday: 57 °F

Past Weeks' High & Low Weather Summary

 TemperatureHumidityPressure
High84 °F (Aug 22, 3:00 PM)99% (Aug 20, 4:00 AM)30.13 "Hg (Aug 20, 4:00 AM)
Low48 °F (Aug 28, 6:00 AM)40% (Aug 17, 5:00 PM)29.44 "Hg (Aug 24, 12:00 PM)
Average61 °F82%29.89 "Hg
* Reported Aug 17 4:00 PM — Sep 1 4:00 PM, Caversham, Weather by CustomWeather, © 2015

Note: Actual official high and low records may vary slightly from our data, if they occured in-between our weather recording intervals... More about our weather records

Advertising

Caversham weather history for previous 24 hours

 ConditionsComfort  
Time TempWeatherWind HumidityBarometerVisibility
4:00 PM
Tue, Sep 1
61 °FScattered clouds.7 mph72%30.08 "Hg19 mi
3:00 PM63 °FScattered clouds.5 mph65%30.08 "Hg19 mi
2:00 PM62 °FPartly sunny.5 mph72%30.09 "Hg19 mi
1:00 PM58 °FOvercast.5 mph84%30.10 "Hg19 mi
12:00 PM59 °FOvercast.6 mph78%30.09 "Hg16 mi
11:00 AM58 °FLow clouds.9 mph85%30.08 "Hg16 mi
10:00 AM56 °FLight rain. Low clouds.8 mph91%30.06 "Hg4 mi
9:00 AM56 °FOvercast.7 mph91%30.05 "Hg12 mi
8:00 AM55 °FLow clouds.5 mph95%30.04 "Hg6 mi
7:00 AM55 °FFog.3 mph97%30.03 "Hg2 mi
6:00 AM54 °FCool.3 mph96%30.02 "Hg3 mi
5:00 AM55 °FCool.6 mph96%30.02 "Hg3 mi
3:00 AM55 °FCool.3 mph98%30.02 "Hg3 mi
2:00 AM56 °FCool.3 mph97%30.03 "Hg3 mi
1:00 AM56 °FCool.3 mph97%30.02 "Hg2 mi
12:00 AM56 °FCool.5 mph94%30.01 "Hg4 mi
11:00 PM
Mon, Aug 31
56 °FCool.5 mph95%30.00 "Hg4 mi
9:00 PM57 °FCool.6 mph94%30.00 "Hg7 mi
8:00 PM57 °FCool.7 mph94%29.97 "Hg8 mi
7:00 PM57 °FCool.8 mph94%29.97 "Hg9 mi
6:00 PM57 °FCool.7 mph96%29.97 "Hg3 mi
Weather by CustomWeather, © 2015

See weather overviewHow to use our weather pages